User: anonymous   Login
Location: Melbourne
(37.8170°S, 144.9670°E)
Time: 02:33:20
(UTC+10:00)
Language:

Cosmos 962 Rocket - Orbit

View from above orbital plane
View from above orbital plane
View from above satellite
View from above satellite

Ground track
Ground track

The orbit data is extracted from the following two-line orbital elements,

1 10461U 77107B   15245.84740773 +.00000046 +00000-0 +30681-4 0  9993
2 10461 082.9503 138.4301 0033275 174.1896 255.6763 13.76735145900596
Epoch (UTC): 02 September 2015 20:20:16
Eccentricity: 0.0033275
inclination: 82.9503°
perigee height: 951 km
apogee height: 1000 km
right ascension of ascending node: 138.4301°
argument of perigee: 174.1896°
revolutions per day: 13.76735145
mean anomaly at epoch: 255.6763°
orbit number at epoch: 90059

The dashed part of the orbit path shows where the satellite is in the earth's shadow,  

DLR